User: anonymous   Login
Location: NJAA Observatory
(40.6819°N, 74.8979°W)
Time: 08:16:57
(UTC-04:00)
Language:

Cosmos 1328 Rocket - Orbit

View from above orbital plane
View from above orbital plane
View from above satellite
View from above satellite

Ground track
Ground track

The orbit data is extracted from the following two-line orbital elements,

1 12988U 81117B   15183.56219041  .00000175  00000-0  17798-4 0  9991
2 12988 082.5236 024.4997 0019487 054.5755 334.2523 14.84441380813642
Epoch (UTC): 02 July 2015 13:29:33
Eccentricity: 0.0019487
inclination: 82.5236°
perigee height: 602 km
apogee height: 629 km
right ascension of ascending node: 24.4997°
argument of perigee: 54.5755°
revolutions per day: 14.84441380
mean anomaly at epoch: 334.2523°
orbit number at epoch: 81364

The dashed part of the orbit path shows where the satellite is in the earth's shadow,  

DLR